METEOR 2-11 DEB, 40707

Orbit data source: Space-Track

METEOR 2-11 DEB, 40707 is space debris in LEO originally from a launch on Thu, 05 Jul 1984 UTC launched from the Plesetsk Missile And Space Complex (PKMTR). Debris objects in space refer to the collection of defunct objects orbiting the Earth. Examples of debris include non-operational satellites, rocket bodies, and fragments generated from explosions, collisions, or faulty payload assembly.

Loading next visibility...
METEOR 2-11 DEB details
Identifier
40707, 1984-072J
Orbit
LEO
Last TLE update2 days ago
Origin
Flag of CISVVKO (CIS)
ManufacturerUnknown
MissionSpacecraft
Bus & MotorUnknown
MassUnknown
Launch date (UTC)
1984-07-05 (40 years ago)
Launch vehicleUnknown
Launch site
Plesetsk Missile And Space Complex (PKMTR)
Object type
Payload
Rocket body
Debris
Shape & HBRUnknown
Radar Cross SectionSmall (<0.1 m²)

Expand to show TLE details & history

TLE from 2 days ago
0 METEOR 2-11 DEB
1 40707U 84072J   24359.96801764  .00005225  00000-0  38549-2 0  9998
2 40707  82.5187  85.0867 0017775 143.8842 216.3529 13.95180261 28916
Epoch: 2024-12-24T23:13Z
Definitive object data (Epoch: 2024-12-24T23:13:56.724Z)
Latitude0.00002°
Longitude2.63184°
Altitude923.894 km
Speed7.385 km/s
True Right ascension05h 40m 20s
True Declination0° 00' 00"
Sunlit
Object was in full shadow at TLE epoch
Visualization TLE readout
Latitude-65.77631°
Longitude-15.69252°
Altitude947.151 km
Speed7.371 km/s
Apparent Right ascension04h 59m 10s
Apparent Declination-53° 45' 31"
Sunlit
Object is in daylight
Visualization observer readout
Local Sidereal Time17:18:53
Azimuth168.08° S
Elevation-75.761°
Doppler factor1
Orbital elements
Apogee altitude920.621 km
Perigee altitude894.72 km
Semi-major axis7,285.808 km
Eccentricity0.0017775
Inclination82.5187°
RAAN85.0867°
Arg. of periapsis143.8842°
True anomaly216.23238°
Mean anomaly216.3529°
Eccentric anomaly216.29262°
Mean motion3.49001 °/min
BSTAR0.0038549
Orbital period103.15 mins
Loading maneuver chart data...
Loading historical data...
Loading historical data...
Loading historical data...
Loading historical data...
Loading historical data...
Loading historical data...
Loading historical data...

METEOR 2-11 DEB Visibility forecast

Observer location: undefined°, undefined

Span
Click to sort rows by Start time (UTC) header in descending order
Start Az.
Max El. time (UTC)
Max El. Az.
Max El.
End time (UTC)
End Az.
8 mins2024-12-26 18:51:28.690Z323.428° NNW2024-12-26 18:55:28.690Z279.01° WNW21.257°2024-12-26 18:59:28.690Z229.797° WSW
10 mins2024-12-27 06:25:28.690Z183.156° SSW2024-12-27 06:30:28.690Z34.686° NE44.495°2024-12-27 06:35:28.690Z8.979° NNE
4 mins2024-12-27 08:13:28.690Z278.678° WNW2024-12-27 08:14:28.690Z289.247° WNW12.599°2024-12-27 08:17:28.690Z320.289° NNW
10 mins2024-12-27 17:13:28.690Z3.306° NNE2024-12-27 17:18:28.690Z100.496° ESE40.127°2024-12-27 17:23:28.690Z158.672° S
|